This is the latest recevied weather packets stored in our database for station/object KO4YAW. If no packets are shown the sender has not sent any weather packets the latest 10 day(s).
| Time | Temp. | Humidity | Pressure | Rain* | Wind** | Luminosity | Snow |
|---|---|---|---|---|---|---|---|
| 1777569034 | 3.89° C | 84% | 1021.2 hPa | 0 mm | - | 132 W/m² | - |
| 1777568134 | 3.89° C | 82% | 1021.2 hPa | 0 mm | - | 141 W/m² | - |
| 1777567234 | 4.44° C | 80% | 1021.4 hPa | 0 mm | - | 157 W/m² | - |
| 1777566334 | 4.44° C | 79% | 1021.2 hPa | 0 mm | - | 231 W/m² | - |
| 1777565434 | 4.44° C | 79% | 1021.1 hPa | 0 mm | - | 200 W/m² | - |
| 1777564534 | 5° C | 77% | 1021.1 hPa | 0 mm | - | 272 W/m² | - |
| 1777563634 | 4.44° C | 77% | 1021.1 hPa | 0 mm | - | 339 W/m² | - |
| 1777562734 | 4.44° C | 76% | 1021.1 hPa | 0 mm | - | 329 W/m² | - |
| 1777561834 | 4.44° C | 76% | 1021.1 hPa | 0 mm | - | 214 W/m² | - |
| 1777560934 | 4.44° C | 74% | 1021.1 hPa | 0 mm | - | 202 W/m² | - |
| 1777560034 | 4.44° C | 70% | 1021 hPa | 0 mm | - | 182 W/m² | - |
| 1777559134 | 5° C | 71% | 1021 hPa | 0 mm | - | 163 W/m² | - |
| 1777558234 | 4.44° C | 71% | 1021 hPa | 0 mm | - | 124 W/m² | - |
| 1777557334 | 4.44° C | 71% | 1021 hPa | 0 mm | - | 152 W/m² | - |
| 1777556434 | 4.44° C | 73% | 1020.9 hPa | 0 mm | - | 104 W/m² | - |
| 1777555534 | 4.44° C | 78% | 1020.9 hPa | 0 mm | - | 95 W/m² | - |
| 1777554634 | 4.44° C | 84% | 1020.8 hPa | 0 mm | - | 82 W/m² | - |
| 1777553734 | 3.89° C | 92% | 1020.6 hPa | 0 mm | - | 45 W/m² | - |
| 1777552834 | 3.89° C | 90% | 1020.5 hPa | 0 mm | - | 13 W/m² | - |
| 1777551934 | 3.89° C | 90% | 1020.5 hPa | 0 mm | - | 6 W/m² | - |
| 1777551034 | 3.33° C | 93% | 1020.4 hPa | 0 mm | - | 2 W/m² | - |
| 1777550134 | 3.33° C | 92% | 1020.5 hPa | 0 mm | - | 1 W/m² | - |
| 1777549234 | 3.89° C | 92% | 1020.5 hPa | 0 mm | - | 0 W/m² | - |
| 1777548334 | 3.89° C | 93% | 1020.4 hPa | 0 mm | - | 0 W/m² | - |
| 1777547434 | 3.89° C | 93% | 1020.5 hPa | 0 mm | - | 0 W/m² | - |
* Rain since midnight (hover to see other rain measurements)
** Current wind speed in m/s (hover to see current wind gust speed)